Zurück zum Katalog

CZ-6A R/B

AktivPO
NORAD 63605·ROCKET BODY·🇨🇳 China

Gestartet Apr 18, 2025 von Taiyuan Satellite Launch Center

Loading…

Nächste Überflüge (nächste 24 Stunden)

TLE

AktuellSource: Space-Track

Epoche: Sep 14, 2026, 19:59 UTC

1 63605U 25078G   26257.83281312  .00000205  00000-0  17990-3 0  9998
2 63605  99.6656 296.6867 0106436 171.5488 188.7496 13.94812599 71610

Verfolge CZ-6A R/B in Echtzeit mit AllMySat

Download on the App Store